Temp
21 21 21 20 20 17 18 20 19 21 22 21 20 21 22 21 22 23 16 17 18 18 17 18 17 16 16 17 16 16 15 14 14 13 13 13 13 13 13 12 12 13 13 13 13 13 13 13 12
20 20 20 15 18 18 19 18 20 21 22 18 19 20 21 22 17 16 16 16 18 18 17 17 17 15 17 16 16 15 14 13 13 13 13 13 12 12 12 12 12 12 12 13 13 13 12 12 12
20 19 19 17 15 18 19 19 20 21 18 21 20 18 19 20 16 17 17 17 17 17 17 17 17 17 17 16 15 14 13 13 13 13 12 12 12 12 12 12 12 12 12 12 12 12 12 12 12
20 18 15 18 17 17 18 19 19 20 21 19 19 20 17 17 17 17 17 17 17 17 17 17 18 17 15 15 14 13 13 13 13 12 12 12 12 11 11 11 12 12 12 12 12 12 12 12 12
17 14 16 17 17 17 17 18 20 21 21 21 20 20 19 16 17 16 17 17 17 16 16 16 17 16 14 14 13 13 13 12 12 12 12 11 11 11 11 11 12 12 12 11 11 12 11 11 11
16 14 17 17 17 17 17 17 19 20 21 20 20 18 18 15 15 15 16 16 17 17 16 16 16 16 14 13 13 13 12 12 12 12 11 11 11 10 10 11 11 11 11 11 11 11 11 11 11
16 15 17 16 17 18 18 17 19 20 20 21 18 19 17 14 14 15 16 16 16 16 16 16 16 15 14 13 13 12 12 12 12 11 11 11 11 11 11 11 11 11 11 11 11 10 10 10 10
12 14 15 15 17 19 20 19 19 19 20 17 18 21 21 15 15 15 16 16 16 16 16 15 15 15 14 13 13 13 13 13 12 12 12 11 11 11 11 11 10 10 10 10 10 10 9 10 10
12 15 15 17 15 19 18 20 19 18 19 18 17 17 15 14 15 15 15 15 15 15 15 15 15 14 13 13 13 13 13 12 12 12 12 11 11 11 11 10 11 11 10 11 10 10 10 10 10
14 13 15 15 15 18 18 19 19 19 19 19 17 14 13 14 14 14 14 14 14 14 14 14 14 14 13 13 13 13 13 12 12 12 12 12 11 11 11 10 10 10 11 11 11 10 10 10 10
12 14 14 17 15 17 18 18 17 18 19 19 19 16 13 14 14 15 14 15 15 15 14 14 14 14 13 13 13 13 13 12 12 12 11 11 11 11 11 10 10 11 11 11 11 11 11 11 10
16 13 14 17 16 17 17 17 18 16 20 19 17 15 13 14 15 15 14 13 14 14 14 14 14 13 13 13 13 13 13 12 12 12 11 11 11 11 11 10 10 11 11 11 11 11 11 11 10
14 15 13 14 15 16 15 16 17 16 16 16 14 13 13 14 15 14 14 13 14 14 14 14 13 13 13 13 13 13 13 12 12 12 12 11 11 11 10 10 10 11 11 11 11 10 10 9 9
14 14 15 15 15 15 16 15 14 16 15 14 14 14 13 13 14 13 13 13 13 14 14 14 13 13 13 13 13 13 13 12 12 12 11 11 10 10 11 10 10 11 11 11 11 10 9 9 9
15 15 14 14 14 15 13 15 12 15 16 16 14 13 13 13 13 13 13 13 14 14 14 14 13 13 13 13 13 13 13 12 12 12 11 11 10 10 11 11 10 11 11 11 11 11 10 9 10
15 15 14 14 12 15 16 17 16 14 13 15 14 12 12 12 13 14 14 14 14 14 14 14 14 13 13 13 13 13 13 12 12 12 11 11 10 10 10 10 10 10 11 11 11 11 10 9 10
12 13 12 14 11 13 14 14 15 14 11 13 12 11 12 12 11 13 14 14 14 14 14 14 14 14 13 13 13 13 12 12 12 11 11 11 10 10 10 10 10 10 11 11 11 11 10 10 10
12 13 13 12 13 12 12 12 13 13 13 12 12 12 11 12 13 14 14 14 14 15 14 15 14 14 13 13 12 12 12 11 11 11 11 11 10 10 10 10 10 10 11 11 11 11 11 11 10
13 13 13 12 13 13 11 12 15 13 12 13 13 12 12 13 14 15 16 14 13 13 13 13 13 13 13 12 11 11 11 11 11 11 11 11 10 10 10 10 10 10 11 11 11 11 11 11 12
12 12 13 13 13 12 13 12 14 12 12 12 15 16 14 14 13 13 14 13 12 12 12 13 13 13 13 12 12 11 11 11 11 11 10 11 10 10 10 10 10 10 10 11 11 12 11 10 11
13 14 12 15 14 13 12 12 14 15 12 12 13 15 15 15 14 13 11 11 12 12 12 12 13 14 13 12 12 11 11 10 10 10 10 10 10 10 10 10 10 10 10 11 11 11 12 11 10
12 12 13 14 15 14 13 13 13 14 14 13 13 13 14 15 13 13 12 10 11 12 12 12 13 13 12 12 12 12 11 10 10 11 11 10 10 10 10 10 10 10 10 11 11 11 12 11 11
13 12 13 13 13 13 12 12 14 14 14 17 17 16 15 14 13 13 12 13 12 12 11 12 12 12 12 12 13 12 12 12 12 11 10 10 10 10 10 10 10 10 10 11 11 11 12 12 12
10 11 11 10 11 9 13 13 14 17 17 18 17 16 15 13 11 11 11 12 12 11 11 11 11 11 11 11 12 12 13 11 11 10 10 10 10 10 9 10 10 10 10 10 11 11 11 12 12
11 12 8 10 9 12 10 11 17 16 15 16 17 16 16 14 13 10 9 10 10 11 11 10 10 9 10 10 11 12 13 13 12 11 11 10 10 10 9 10 10 10 10 10 11 11 11 12 12
12 14 11 10 7 11 10 12 14 14 17 15 15 14 14 13 12 10 9 10 11 11 10 9 9 9 9 10 11 12 13 13 12 13 12 11 11 11 10 10 9 9 10 10 10 11 11 11 12
10 12 13 9 2 9 11 11 13 14 15 14 13 12 13 13 12 10 8 9 10 11 10 9 9 8 9 9 10 12 12 12 12 12 12 12 11 11 10 10 9 9 10 9 10 10 11 11 11
12 14 13 10 9 10 11 11 15 16 15 15 14 14 12 11 11 9 7 8 10 10 9 9 9 8 8 9 10 11 12 12 13 12 12 11 11 10 10 9 9 9 9 9 10 10 10 11 10
10 12 12 12 11 12 9 13 11 15 15 16 15 15 14 11 9 7 6 8 9 10 9 8 8 9 8 9 10 11 12 12 12 12 12 11 11 10 10 10 9 9 9 9 9 9 10 10 10
12 12 13 14 10 7 9 13 12 12 11 12 14 13 11 9 8 6 5 8 9 9 9 8 8 8 9 9 10 11 11 11 11 11 11 11 10 10 10 10 9 9 9 9 9 9 9 10 10
Height
791 790 788 787 811 820 825 811 801 795 790 782 782 784 785 787 790 800 789 790 792 796 801 804 806 808 810 811 812 813 814 814 815 815 815 816 815 815 815 814 814 814 813 813 813 812 811 810 808
790 790 789 800 819 828 821 809 800 791 782 785 784 785 785 787 788 789 791 791 794 797 801 804 806 808 809 811 813 813 814 815 816 816 816 816 816 815 815 815 814 814 814 813 812 811 809 808 807
790 791 794 808 828 824 818 802 796 786 785 783 786 786 786 788 788 789 789 791 794 798 802 805 807 809 810 812 813 814 815 816 816 817 817 817 816 816 816 815 814 814 813 813 811 811 809 809 807
789 792 803 810 818 813 807 796 792 788 783 783 783 787 787 786 786 787 788 792 796 799 803 806 808 810 811 813 814 815 816 817 817 817 817 817 817 816 816 816 815 814 813 812 812 810 809 807 806
790 800 814 816 813 806 801 795 790 789 784 783 782 786 787 786 786 787 788 792 795 799 803 806 808 811 812 814 814 815 816 817 817 817 818 818 818 817 817 816 815 814 813 812 811 811 809 806 805
798 804 816 815 811 802 797 792 790 788 783 783 785 788 786 786 787 787 789 792 796 799 803 806 809 810 813 814 815 816 817 817 818 818 818 819 818 818 817 816 816 815 814 813 812 810 808 807 805
799 808 812 812 807 800 791 788 788 786 783 782 779 786 786 786 786 787 789 793 797 800 803 806 808 810 813 815 816 816 817 817 818 818 819 818 818 818 817 816 817 816 815 814 812 810 808 806 803
801 805 812 812 806 796 782 783 780 784 782 779 778 781 781 781 784 787 790 794 798 801 804 806 808 810 812 814 816 816 817 817 818 818 819 819 819 818 818 817 817 816 815 814 812 810 808 805 802
797 809 813 802 808 788 780 780 779 779 780 779 778 778 780 780 784 787 790 794 797 800 803 805 807 809 811 813 815 816 817 818 819 818 819 819 819 819 819 818 817 816 816 814 813 811 809 805 802
797 810 801 792 792 786 779 779 778 780 779 778 778 779 780 782 783 785 787 790 794 798 801 804 806 808 810 812 814 816 817 818 819 819 819 820 820 820 819 819 819 817 816 815 813 811 808 805 802
797 797 791 783 785 782 780 779 777 779 780 774 774 775 781 782 783 784 785 786 789 795 799 802 804 806 809 811 813 815 817 818 819 819 819 820 820 820 820 820 820 819 817 815 813 811 808 806 805
791 787 786 779 779 781 782 778 776 778 770 767 769 771 777 779 780 780 782 784 787 792 796 800 802 805 807 810 812 814 816 817 818 819 820 821 820 820 821 821 821 820 819 817 814 812 810 809 807
789 783 783 780 781 780 781 781 778 775 768 768 769 770 772 775 778 780 782 784 786 789 793 796 800 803 806 808 811 813 815 817 818 819 819 821 821 820 820 821 822 821 820 819 817 814 813 812 809
780 782 778 777 777 779 779 778 779 765 764 767 768 768 770 770 771 777 778 780 782 786 790 794 797 800 804 806 809 811 813 815 817 818 819 820 821 820 820 821 822 822 821 820 819 817 815 814 812
779 781 780 778 777 776 779 778 774 762 762 763 765 764 766 766 769 766 769 772 776 781 786 790 795 798 801 804 807 810 812 814 816 818 819 820 821 821 820 820 821 822 821 821 821 820 818 817 814
781 782 785 774 777 771 773 764 760 759 764 759 759 761 762 760 760 762 764 768 772 777 781 786 791 795 799 802 805 808 810 813 815 817 818 819 821 821 821 821 822 823 822 822 822 821 821 820 817
789 786 790 779 775 773 773 769 755 755 762 758 758 758 756 756 756 755 757 761 765 770 776 781 786 791 795 800 803 806 809 811 814 816 817 818 820 821 822 822 822 823 823 823 823 824 824 823 822
786 785 783 780 769 774 774 770 757 756 757 757 756 753 753 751 745 746 749 754 758 763 769 775 781 786 792 797 800 804 806 809 812 815 817 818 820 822 822 822 823 823 823 823 824 825 826 824 824
772 776 774 773 767 769 773 766 750 752 755 752 747 747 746 743 739 741 743 747 752 757 762 767 774 780 786 792 796 799 802 807 811 814 816 818 819 821 822 822 824 824 823 824 824 825 826 826 825
770 772 772 768 766 770 764 760 747 749 746 743 736 733 735 733 734 733 736 739 744 749 754 760 766 772 780 786 791 796 801 805 809 812 815 817 819 821 822 822 823 824 825 824 824 824 825 825 824
760 758 770 763 764 767 768 759 744 732 735 731 728 723 722 722 724 727 730 732 737 741 746 752 758 766 774 781 787 793 800 804 807 810 813 816 818 820 822 822 824 825 825 825 824 824 823 825 825
757 759 761 763 763 769 765 760 743 729 728 724 720 718 713 711 714 717 721 725 727 733 740 745 752 760 768 775 782 787 792 797 802 806 811 814 817 819 821 822 823 825 825 825 825 826 825 825 824
747 753 758 762 766 768 768 771 729 727 723 709 703 703 699 700 704 708 711 713 718 726 731 737 747 754 762 769 776 783 789 794 799 805 809 812 815 817 820 821 823 824 825 825 825 826 825 825 824
752 760 768 774 772 791 749 756 721 710 704 698 693 693 693 693 698 699 702 708 713 721 728 733 740 748 755 764 771 778 784 791 797 802 805 809 813 816 818 820 822 823 824 825 825 825 827 827 827
742 746 792 783 789 753 762 758 700 694 696 691 688 689 687 689 692 696 698 702 708 714 722 728 734 742 750 758 766 774 781 787 793 796 801 805 809 813 816 819 822 824 824 825 826 825 827 828 829
732 727 748 770 793 754 762 731 705 689 674 681 683 686 687 687 689 691 694 696 700 707 715 721 727 735 743 752 760 769 777 783 789 794 798 802 806 811 815 818 821 824 826 827 827 827 827 829 830
735 726 720 759 814 767 740 720 699 687 678 679 681 686 683 682 684 687 691 694 698 704 710 715 723 731 738 746 755 764 772 779 785 790 795 800 805 810 814 817 820 823 825 827 827 828 827 829 832
705 705 724 744 760 761 733 728 694 682 677 675 676 675 677 679 682 686 689 693 698 704 710 716 722 727 734 744 752 760 768 775 781 786 791 796 803 808 813 816 819 822 825 827 828 829 829 830 833
711 706 711 714 726 718 750 703 693 673 674 671 668 667 671 678 683 688 691 694 699 705 710 714 720 726 733 740 748 756 764 771 777 783 788 794 800 805 810 815 817 821 824 826 828 829 830 831 834
695 693 697 699 726 744 732 703 682 682 680 677 671 672 676 680 685 689 693 695 698 703 709 713 719 724 729 736 745 753 761 768 774 779 785 791 797 803 807 812 816 820 823 826 828 829 831 832 835
Wind_Speed
10 9 1 5 3 4 3 5 2 3 2 2 3 4 5 2 3 2 5 8 19 24 24 18 16 17 11 5 6 6 5 6 7 7 7 7 7 8 8 9 9 10 9 9 9 10 9 9 9
8 6 2 2 4 1 4 4 5 5 1 6 4 2 2 1 1 3 10 10 21 25 24 20 16 15 6 4 7 6 7 7 6 6 6 7 7 8 9 9 10 10 10 10 9 9 9 9 10
3 4 3 4 3 4 4 4 5 4 4 2 3 2 3 3 1 11 3 16 23 25 22 19 16 9 5 6 8 7 7 7 6 6 6 7 7 8 9 9 9 10 9 9 10 10 10 11 11
1 4 3 3 5 5 6 3 2 3 3 4 2 3 0 1 4 8 13 21 26 24 20 18 13 7 7 9 9 8 7 7 6 6 7 7 7 8 8 9 9 9 9 10 10 10 11 12 11
4 3 3 2 4 5 4 4 2 3 3 2 3 3 3 0 3 10 20 24 27 23 21 18 14 10 10 10 9 8 7 7 6 7 7 7 7 8 8 8 8 9 9 10 11 11 12 12 10
3 3 2 4 5 4 5 5 2 4 3 2 2 5 3 2 9 14 21 25 24 23 22 16 13 10 11 10 9 8 7 6 6 6 6 6 7 7 7 7 8 9 10 11 11 11 12 11 11
4 3 4 4 3 4 5 3 4 4 3 4 4 5 1 4 9 17 22 24 23 22 20 18 14 11 12 11 10 8 6 5 5 4 4 5 5 6 7 8 9 10 10 11 12 12 13 12 10
4 3 3 4 5 6 3 2 2 5 5 1 2 4 3 5 16 19 22 23 21 21 19 18 15 14 14 12 10 8 6 5 4 4 4 4 5 5 7 8 9 9 10 10 11 13 15 13 11
3 3 4 5 6 6 3 3 3 1 2 2 2 1 1 17 22 23 22 20 21 20 19 18 16 15 16 13 10 7 6 4 4 4 4 4 6 6 7 7 8 9 10 11 13 14 15 14 13
4 4 9 6 5 5 5 4 3 2 3 3 2 1 4 17 23 21 20 17 22 22 21 19 17 18 17 14 11 9 7 4 3 3 4 5 6 6 6 6 7 9 11 12 14 15 16 17 16
6 6 5 4 6 3 3 2 4 5 4 7 7 5 9 15 18 20 21 24 29 26 23 21 19 19 18 15 12 10 8 5 3 3 3 5 6 6 6 7 7 9 11 13 14 16 18 18 15
3 7 5 3 3 3 3 2 3 6 5 1 5 5 12 15 15 21 22 23 29 29 26 23 21 20 19 16 13 10 8 6 3 3 3 4 5 7 7 7 8 9 11 13 14 17 16 13 12
4 4 6 6 3 4 2 6 5 7 9 3 4 5 12 14 18 19 18 20 28 30 29 26 24 22 20 18 15 13 10 7 4 4 4 4 5 7 8 8 7 9 11 13 16 18 17 16 16
4 5 3 4 4 4 4 5 6 7 5 10 7 9 9 13 20 16 19 22 29 31 31 28 26 24 22 19 16 14 11 9 6 5 5 5 5 6 8 7 7 8 10 12 15 19 17 15 16
2 3 3 6 5 5 6 9 10 12 4 6 9 10 9 13 14 23 26 27 32 33 31 30 28 26 24 21 17 15 12 10 7 5 5 5 5 5 7 7 6 7 9 10 11 17 16 17 20
3 1 2 3 8 4 9 18 6 8 8 15 12 8 8 12 19 21 27 28 31 31 33 32 30 29 26 23 19 16 14 12 9 7 7 6 5 5 6 6 6 6 7 9 12 17 17 20 25
2 3 5 7 11 4 8 6 6 2 7 10 8 8 11 11 11 24 29 31 32 34 34 34 33 32 29 25 21 18 16 13 10 9 9 7 6 5 6 7 6 6 7 8 11 16 17 20 23
5 4 5 7 4 3 4 12 13 7 4 9 7 8 8 10 17 22 31 32 34 34 35 35 36 34 31 28 23 20 18 15 13 11 10 8 7 5 5 6 5 6 7 8 9 15 17 21 23
6 5 7 4 5 5 8 11 17 11 5 10 12 11 11 13 10 21 22 31 32 34 35 37 38 37 36 33 28 24 23 19 15 12 10 9 7 6 5 7 5 6 7 9 7 10 11 9 9
6 6 7 4 3 5 3 12 15 7 8 10 17 15 14 10 8 9 22 27 30 31 35 38 40 40 40 38 33 24 24 20 16 14 12 10 9 7 6 7 6 6 6 7 8 6 5 5 3
18 18 5 3 1 3 5 8 10 8 7 7 13 16 12 15 14 9 11 23 28 31 33 38 41 42 42 40 33 22 23 15 17 16 15 13 10 8 6 6 6 6 6 6 8 6 5 5 10
19 8 6 4 1 4 2 6 6 6 10 7 11 13 18 18 10 8 12 17 27 31 31 37 42 42 42 41 37 33 29 18 19 21 17 15 12 9 7 7 7 6 6 6 7 7 5 5 6
7 9 13 7 4 2 4 3 6 4 8 15 14 16 17 14 11 12 14 24 30 31 35 39 40 41 43 43 41 37 30 25 17 20 18 16 14 11 8 8 8 7 7 6 7 8 8 8 10
8 8 6 4 3 4 11 9 7 10 10 10 8 8 9 9 9 10 13 19 23 26 29 34 39 39 42 43 41 38 33 26 20 22 22 19 16 14 11 9 9 8 8 6 6 8 8 9 10
6 12 2 1 2 9 2 7 17 8 7 7 9 6 6 6 4 7 10 13 22 28 29 33 37 35 41 42 42 40 35 29 25 25 25 23 20 17 14 11 10 9 8 7 5 6 7 8 10
13 16 7 8 5 3 2 9 6 14 16 8 9 7 7 8 6 7 8 12 22 28 30 32 37 35 41 42 42 40 36 31 26 23 24 24 21 18 15 12 11 10 7 6 6 6 8 9 9
8 14 8 6 2 3 5 8 7 13 15 8 8 7 10 9 6 6 7 11 20 26 28 32 32 32 37 40 41 41 37 32 27 23 22 22 20 18 16 13 13 12 9 6 7 7 9 9 11
16 13 7 1 5 4 5 5 6 6 9 7 9 10 10 7 6 5 6 9 16 20 22 26 29 33 35 36 38 40 37 33 29 25 24 23 21 19 18 15 14 13 10 7 7 7 8 10 13
5 14 6 5 4 8 2 6 7 8 3 5 7 6 5 6 6 5 5 11 16 18 21 24 29 32 34 37 39 39 37 34 30 27 24 23 23 22 19 16 15 14 12 9 8 8 9 11 14
7 10 10 11 8 2 2 5 1 5 6 6 5 6 5 5 6 6 6 12 16 18 20 24 26 31 34 37 38 37 36 33 31 28 25 24 24 22 20 18 16 15 13 11 10 10 9 12 16
Wind_Direction
319 312 284 46 55 59 269 260 277 268 234 218 109 145 181 109 171 201 154 154 161 161 164 166 156 147 146 135 150 130 109 97 89 78 69 58 50 43 39 35 31 28 24 19 13 8 359 350 349
322 312 20 88 97 90 267 255 235 236 180 127 92 78 100 171 90 132 132 163 163 161 162 163 165 154 156 153 152 130 116 108 98 85 71 57 48 44 41 38 36 31 25 19 10 358 348 344 344
308 334 90 102 119 187 226 221 267 286 159 178 114 39 140 165 126 162 182 160 164 162 163 164 161 160 184 172 149 135 126 117 105 88 69 58 53 48 48 45 40 33 28 19 5 358 353 352 348
75 16 39 109 209 245 218 238 237 284 253 242 139 122 47 269 169 180 160 161 163 162 165 161 163 186 187 162 146 136 130 121 105 85 72 63 65 57 56 51 46 37 25 13 1 2 354 345 343
59 73 80 149 233 254 244 256 240 253 274 190 167 203 163 339 167 159 159 164 165 162 164 161 173 172 169 157 147 143 134 120 100 84 77 73 68 63 62 55 44 32 25 24 15 7 2 4 352
53 97 94 220 236 248 270 238 252 229 248 169 144 157 185 171 152 157 164 166 168 164 165 165 179 169 174 159 152 146 135 115 99 94 85 81 73 63 64 53 42 34 25 17 11 1 359 351 348
126 106 217 198 238 287 237 169 195 229 206 236 147 150 157 183 178 167 168 168 168 168 169 169 178 175 186 172 168 158 142 122 111 110 100 85 85 61 58 54 42 36 31 23 15 9 358 350 346
111 100 150 229 206 249 211 240 178 184 236 108 205 199 219 185 169 166 163 166 169 172 175 175 179 180 186 182 184 173 155 141 127 119 104 88 72 64 58 52 47 40 33 23 15 13 6 4 356
137 84 212 226 171 236 181 192 174 198 200 237 208 147 7 154 162 159 158 161 171 177 179 180 182 186 188 187 186 181 170 155 127 117 106 88 72 68 59 49 47 45 35 32 28 21 15 13 13
127 162 216 203 207 241 181 181 172 156 189 240 256 125 129 158 166 168 170 168 179 183 183 186 190 190 188 189 190 186 177 166 140 117 104 89 80 66 50 58 49 52 44 38 32 20 20 20 17
176 203 209 243 220 233 243 227 175 152 236 222 203 178 172 175 182 185 185 185 188 190 189 191 194 195 191 193 192 190 184 178 150 130 113 99 87 70 58 68 63 53 46 38 31 23 24 22 25
206 225 184 248 217 175 232 299 234 185 219 292 212 157 172 186 195 195 194 192 190 193 195 195 197 195 194 196 197 196 191 183 157 134 114 104 97 79 83 68 70 55 43 35 33 28 28 23 30
235 234 180 231 260 248 312 253 249 249 241 229 103 169 178 191 204 207 206 201 197 198 199 198 197 198 197 197 199 197 192 186 169 150 130 118 101 86 98 75 69 55 41 38 39 34 37 46 43
220 219 238 223 202 222 223 257 154 256 239 230 217 205 204 198 200 204 204 203 205 204 204 200 199 199 199 200 200 195 191 190 178 160 144 126 105 91 101 85 72 62 48 44 49 49 45 49 49
210 254 304 229 204 228 163 277 228 232 186 221 224 230 214 217 202 208 206 205 207 210 208 204 201 199 200 200 198 195 193 192 184 170 159 143 122 101 107 97 87 72 56 54 60 56 56 62 61
204 194 213 268 160 239 150 253 271 261 189 238 233 239 228 227 220 219 216 212 212 209 210 207 203 201 200 199 198 196 197 193 189 179 169 156 137 111 112 100 85 72 65 61 66 71 66 70 69
282 222 219 306 196 145 183 255 255 251 192 248 245 241 236 243 235 226 222 217 215 214 211 207 205 202 199 198 198 199 198 194 193 185 175 164 149 123 122 103 86 92 80 73 74 84 79 77 71
195 220 236 222 215 171 215 259 264 264 231 254 260 255 245 241 236 225 222 219 218 216 214 211 205 202 200 197 196 197 196 195 194 189 181 170 155 139 127 115 92 106 91 79 88 101 91 88 80
184 198 210 231 232 167 218 249 261 257 220 258 258 247 243 243 241 233 225 218 209 208 206 206 203 201 197 193 190 193 193 193 193 189 181 176 165 150 134 123 108 114 93 76 94 112 125 117 99
182 194 229 286 169 178 240 259 255 239 242 210 242 247 236 236 223 221 215 205 200 196 199 201 204 201 198 197 196 195 194 197 196 188 184 181 176 161 147 135 122 125 97 81 84 118 129 75 115
219 219 166 225 134 226 327 273 257 250 236 227 238 241 241 231 226 218 193 195 194 194 193 197 199 202 198 199 194 191 191 189 188 189 188 184 182 172 161 145 134 131 118 82 77 84 118 126 65
218 158 152 157 83 241 133 284 269 250 250 230 239 237 241 235 225 201 193 191 193 196 193 195 198 199 196 197 193 193 189 182 198 194 188 185 183 177 170 160 148 138 137 104 77 64 86 131 126
208 151 187 171 177 28 208 286 262 266 254 255 246 235 239 232 208 207 197 200 199 188 188 192 192 193 195 195 198 197 197 199 194 189 186 185 183 182 175 164 159 150 149 121 99 78 88 101 105
136 96 61 62 103 267 227 197 235 224 215 247 242 236 238 233 216 220 204 193 185 184 182 182 185 186 192 192 196 197 198 194 184 183 184 185 185 184 181 171 166 158 156 143 114 91 98 103 109
169 152 72 70 191 238 335 197 248 249 239 240 248 223 220 193 242 207 180 176 172 176 181 178 179 180 188 190 195 199 200 199 195 188 188 185 186 188 185 176 171 165 159 159 135 113 109 122 126
183 179 163 180 198 197 130 235 241 232 263 244 238 229 248 251 236 208 194 179 175 176 179 177 179 178 184 187 192 198 200 198 198 195 194 194 193 188 183 175 168 163 156 151 147 134 121 120 132
188 205 169 101 11 82 217 288 270 255 257 245 245 209 237 231 225 200 172 176 171 173 181 180 177 177 180 184 190 195 196 197 196 197 200 197 191 187 183 177 169 165 159 156 147 140 137 130 128
183 168 172 315 150 233 262 270 239 296 271 266 243 213 232 220 191 163 161 156 167 172 174 173 176 177 178 181 189 193 193 195 197 197 196 193 189 186 184 178 171 169 162 161 158 139 135 139 135
144 187 195 128 170 187 213 255 218 239 31 248 262 220 208 178 160 151 144 144 161 166 172 168 174 177 179 184 190 194 192 193 194 197 194 191 188 187 186 181 173 172 169 166 161 150 141 146 144
192 188 186 194 217 226 144 272 319 290 275 256 4 90 83 111 114 122 126 150 160 166 173 172 173 178 184 188 191 193 191 190 192 195 193 190 188 188 186 183 178 175 171 167 168 163 149 155 153